| time (UTC) | temp C | wind direction | speed KPH | gust KPH | rain 1hr cm | rain 24hr cm | rain mn cm | humidity % | barometer mb |
| 20260901024519 | 21 | 0.0 | 0.0 | 0.00 | 0.05 | 0.05 | 100 | 1016.7 | |
| 20260901023519 | 21 | 0.0 | 0.0 | 0.00 | 0.05 | 0.05 | 100 | 1016.8 | |
| 20260901022519 | 21 | 0.0 | 0.0 | 0.00 | 0.05 | 0.05 | 100 | 1016.9 | |
| 20260901021519 | 21 | 0.0 | 0.0 | 0.00 | 0.05 | 0.05 | 100 | 1017.0 | |
| 20260901020519 | 21 | 0.0 | 0.0 | 0.00 | 0.05 | 0.05 | 100 | 1017.0 | |
| 20260901015519 | 21 | 0.0 | 0.0 | 0.00 | 0.05 | 0.05 | 100 | 1017.1 | |
| 20260901014519 | 21 | 0.0 | 0.0 | 0.00 | 0.05 | 0.05 | 100 | 1017.0 | |
| 20260901013945 | 22 | 0.0 | 0.0 | 0.00 | 0.05 | 0.05 | 100 | 1016.8 | |
| 20260901012519 | 22 | 0.0 | 0.0 | 0.00 | 0.05 | 0.05 | 100 | 1016.7 | |
| 20260901011519 | 22 | 0.0 | 0.0 | 0.00 | 0.05 | 0.05 | 100 | 1016.5 | |
| 20260901010519 | 22 | 0.0 | 0.0 | 0.00 | 0.05 | 0.05 | 100 | 1016.5 | |
| 20260901005519 | 23 | 0.0 | 0.0 | 0.00 | 0.05 | 0.05 | 100 | 1016.5 | |
| 20260901004519 | 23 | 0.0 | 0.0 | 0.00 | 0.05 | 0.05 | 100 | 1016.4 | |
| 20260901003519 | 23 | 0.0 | 0.0 | 0.00 | 0.05 | 0.05 | 100 | 1016.2 | |
| 20260901002519 | 24 | 0.0 | 0.0 | 0.00 | 0.05 | 0.05 | 100 | 1016.2 | |
| 20260901001519 | 24 | 0.0 | 0.0 | 0.00 | 0.05 | 0.05 | 100 | 1016.3 | |
| 20260901000519 | 25 | 0.0 | 0.0 | 0.00 | 0.05 | 0.05 | 100 | 1016.2 | |
| 20260831235520 | 25 | 0.0 | 0.0 | 0.00 | 0.05 | 0.05 | 100 | 1016.2 | |
| 20260831234519 | 25 | 0.0 | 0.0 | 0.00 | 0.05 | 0.05 | 100 | 1016.3 | |
| 20260831233520 | 26 | 0.0 | 0.0 | 0.00 | 0.05 | 0.05 | 100 | 1016.3 | |
| 20260831232519 | 26 | 0.0 | 0.0 | 0.00 | 0.05 | 0.05 | 100 | 1016.4 | |
| 20260831231519 | 26 | 0.0 | 0.0 | 0.00 | 0.05 | 0.05 | 100 | 1016.3 | |
| 20260831230519 | 26 | 0.0 | 3.2 | 0.00 | 0.05 | 0.05 | 13 | 1016.4 | |
| 20260831225732 | 26 | 225 | 1.6 | 4.8 | 0.00 | 0.05 | 0.05 | 22 | 1016.5 |
| 20260831224519 | 27 | 0.0 | 3.2 | 0.00 | 0.05 | 0.05 | 18 | 1016.5 | |
| 20260831223519 | 27 | 225 | 1.6 | 6.4 | 0.00 | 0.05 | 0.05 | 24 | 1016.4 |
| 20260831222943 | 27 | 225 | 3.2 | 8.0 | 0.00 | 0.05 | 0.05 | 27 | 1016.5 |
| 20260831221520 | 27 | 0.0 | 3.2 | 0.00 | 0.05 | 0.05 | 17 | 1016.6 | |
| 20260831220519 | 26 | 225 | 3.2 | 6.4 | 0.00 | 0.05 | 0.05 | 18 | 1016.6 |
| 20260831215519 | 26 | 225 | 3.2 | 8.0 | 0.00 | 0.05 | 0.05 | 7 | 1016.6 |
| 20260831214734 | 26 | 225 | 3.2 | 4.8 | 0.00 | 0.05 | 0.05 | 1 | 1016.7 |
| 20260831213520 | 26 | 225 | 1.6 | 4.8 | 0.00 | 0.05 | 0.05 | 5 | 1016.9 |
| 20260831212730 | 26 | 225 | 1.6 | 4.8 | 0.00 | 0.05 | 0.05 | 100 | 1016.9 |
| 20260831211519 | 26 | 225 | 1.6 | 4.8 | 0.00 | 0.05 | 0.05 | 3 | 1017.0 |
| 20260831210945 | 26 | 225 | 3.2 | 6.4 | 0.00 | 0.05 | 0.05 | 2 | 1017.1 |
| 20260831205519 | 26 | 0.0 | 3.2 | 0.00 | 0.05 | 0.05 | 6 | 1017.1 | |
| 20260831204519 | 26 | 0.0 | 3.2 | 0.00 | 0.05 | 0.05 | 19 | 1017.3 | |
| 20260831203520 | 26 | 225 | 1.6 | 4.8 | 0.00 | 0.05 | 0.05 | 24 | 1017.3 |
| 20260831202519 | 26 | 225 | 1.6 | 4.8 | 0.00 | 0.05 | 0.05 | 24 | 1017.3 |
| 20260831201520 | 26 | 225 | 1.6 | 4.8 | 0.00 | 0.05 | 0.05 | 26 | 1017.5 |
| 20260831200519 | 26 | 225 | 1.6 | 4.8 | 0.00 | 0.05 | 0.05 | 31 | 1017.5 |
| 20260831195519 | 26 | 0.0 | 1.6 | 0.00 | 0.05 | 0.05 | 26 | 1017.5 | |
| 20260831195156 | 26 | 225 | 1.6 | 6.4 | 0.00 | 0.05 | 0.05 | 33 | 1017.5 |
| 20260831193519 | 26 | 225 | 6.4 | 14.5 | 0.00 | 0.05 | 0.05 | 35 | 1017.6 |
| 20260831192519 | 26 | 248 | 3.2 | 8.0 | 0.00 | 0.05 | 0.05 | 23 | 1017.6 |
| 20260831191519 | 26 | 270 | 3.2 | 9.7 | 0.00 | 0.05 | 0.05 | 32 | 1017.7 |
| 20260831190520 | 26 | 270 | 1.6 | 6.4 | 0.00 | 0.05 | 0.05 | 29 | 1018.0 |
| 20260831185519 | 26 | 270 | 1.6 | 4.8 | 0.00 | 0.05 | 0.05 | 39 | 1018.2 |
| 20260831184730 | 26 | 270 | 3.2 | 6.4 | 0.00 | 0.05 | 0.05 | 25 | 1018.2 |
| 20260831183519 | 26 | 270 | 3.2 | 8.0 | 0.00 | 0.05 | 0.05 | 37 | 1018.2 |
| 20260831182520 | 26 | 270 | 3.2 | 6.4 | 0.00 | 0.05 | 0.05 | 24 | 1018.2 |
| 20260831181519 | 25 | 270 | 3.2 | 6.4 | 0.00 | 0.05 | 0.05 | 29 | 1018.3 |
| 20260831180519 | 25 | 270 | 3.2 | 4.8 | 0.00 | 0.05 | 0.05 | 24 | 1018.3 |
| 20260831175520 | 25 | 0.0 | 1.6 | 0.00 | 0.05 | 0.05 | 24 | 1018.5 | |
| 20260831174520 | 25 | 270 | 1.6 | 6.4 | 0.00 | 0.05 | 0.05 | 32 | 1018.6 |
| 20260831173519 | 25 | 270 | 1.6 | 4.8 | 0.00 | 0.05 | 0.05 | 38 | 1018.6 |
| 20260831172520 | 25 | 270 | 3.2 | 8.0 | 0.00 | 0.05 | 0.05 | 38 | 1018.5 |
| 20260831171520 | 25 | 270 | 1.6 | 4.8 | 0.00 | 0.05 | 0.05 | 32 | 1018.7 |
| 20260831170729 | 25 | 270 | 1.6 | 3.2 | 0.00 | 0.05 | 0.05 | 25 | 1018.7 |
| 20260831165520 | 25 | 270 | 3.2 | 6.4 | 0.00 | 0.05 | 0.05 | 5 | 1018.7 |
| 20260831164520 | 25 | 270 | 1.6 | 4.8 | 0.00 | 0.05 | 0.05 | 100 | 1018.7 |
| 20260831163520 | 25 | 270 | 3.2 | 6.4 | 0.00 | 0.05 | 0.05 | 15 | 1018.7 |
| 20260831162520 | 25 | 0.0 | 1.6 | 0.00 | 0.05 | 0.05 | 11 | 1018.9 | |
| 20260831161729 | 25 | 293 | 4.8 | 12.9 | 0.00 | 0.05 | 0.05 | 100 | 1018.8 |
| 20260831161156 | 25 | 293 | 3.2 | 8.0 | 0.00 | 0.05 | 0.05 | 100 | 1018.9 |
| 20260831155731 | 24 | 293 | 4.8 | 9.7 | 0.00 | 0.05 | 0.05 | 100 | 1018.9 |
| 20260831154520 | 24 | 293 | 4.8 | 8.0 | 0.00 | 0.05 | 0.05 | 100 | 1019.0 |
| 20260831153520 | 24 | 293 | 3.2 | 6.4 | 0.00 | 0.05 | 0.05 | 100 | 1019.0 |
| 20260831152519 | 23 | 293 | 3.2 | 6.4 | 0.00 | 0.05 | 0.05 | 100 | 1018.9 |
| 20260831151520 | 23 | 293 | 4.8 | 9.7 | 0.00 | 0.05 | 0.05 | 100 | 1019.0 |
| 20260831150731 | 22 | 293 | 1.6 | 4.8 | 0.00 | 0.05 | 0.05 | 100 | 1019.0 |
| 20260831145520 | 21 | 293 | 1.6 | 8.0 | 0.00 | 0.05 | 0.05 | 100 | 1018.8 |
| 20260831144520 | 21 | 293 | 1.6 | 6.4 | 0.03 | 0.05 | 0.05 | 100 | 1018.7 |
| 20260831143519 | 21 | 293 | 1.6 | 4.8 | 0.05 | 0.05 | 0.05 | 100 | 1018.9 |
| 20260831142520 | 21 | 293 | 1.6 | 3.2 | 0.05 | 0.05 | 0.05 | 100 | 1019.1 |
| 20260831141731 | 21 | 0.0 | 3.2 | 0.05 | 0.05 | 0.05 | 100 | 1019.2 | |
| 20260831140520 | 21 | 0.0 | 3.2 | 0.05 | 0.05 | 0.05 | 100 | 1019.2 | |
| 20260831135733 | 21 | 0.0 | 0.0 | 0.05 | 0.05 | 0.05 | 100 | 1019.4 | |
| 20260831134520 | 21 | 0.0 | 0.0 | 0.03 | 0.03 | 0.03 | 100 | 1019.5 | |
| 20260831133532 | 21 | 0.0 | 0.0 | 0.00 | 0.00 | 0.00 | 100 | 1019.3 | |
| 20260831132730 | 21 | 0.0 | 3.2 | 0.00 | 0.00 | 0.00 | 100 | 1019.3 | |
| 20260831131520 | 21 | 0.0 | 3.2 | 0.00 | 0.00 | 0.00 | 100 | 1019.4 | |
| 20260831130520 | 20 | 293 | 1.6 | 4.8 | 0.00 | 0.00 | 0.00 | 100 | 1019.3 |
| 20260831125520 | 20 | 0.0 | 0.0 | 0.00 | 0.00 | 0.00 | 100 | 1019.2 | |
| 20260831124520 | 20 | 0.0 | 0.0 | 0.00 | 0.00 | 0.00 | 100 | 1019.2 | |
| 20260831123730 | 20 | 0.0 | 0.0 | 0.00 | 0.00 | 0.00 | 100 | 1019.1 | |
| 20260831122731 | 19 | 0.0 | 0.0 | 0.00 | 0.00 | 0.00 | 100 | 1019.0 | |
| 20260831121520 | 19 | 0.0 | 0.0 | 0.00 | 0.00 | 0.00 | 100 | 1018.9 | |
| 20260831120733 | 19 | 0.0 | 0.0 | 0.00 | 0.00 | 0.00 | 100 | 1019.0 | |
| 20260831115942 | 18 | 0.0 | 0.0 | 0.00 | 0.00 | 0.00 | 100 | 1018.9 | |
| 20260831114729 | 18 | 0.0 | 0.0 | 0.00 | 0.00 | 0.00 | 100 | 1018.8 | |
| 20260831113519 | 18 | 0.0 | 0.0 | 0.00 | 0.00 | 0.00 | 100 | 1018.9 | |
| 20260831112732 | 18 | 0.0 | 0.0 | 0.00 | 0.00 | 0.00 | 100 | 1018.8 | |
| 20260831111520 | 18 | 0.0 | 0.0 | 0.00 | 0.00 | 0.00 | 100 | 1018.9 | |
| 20260831110520 | 18 | 0.0 | 0.0 | 0.00 | 0.00 | 0.00 | 100 | 1018.8 | |
| 20260831105520 | 18 | 0.0 | 0.0 | 0.00 | 0.00 | 0.00 | 100 | 1018.6 | |
| 20260831104520 | 18 | 0.0 | 0.0 | 0.00 | 0.00 | 0.00 | 100 | 1018.3 | |
| 20260831103519 | 18 | 0.0 | 0.0 | 0.00 | 0.00 | 0.00 | 100 | 1018.2 | |
| 20260831102520 | 18 | 0.0 | 0.0 | 0.00 | 0.00 | 0.00 | 100 | 1018.3 | |
| 20260831101946 | 18 | 0.0 | 0.0 | 0.00 | 0.00 | 0.00 | 100 | 1018.1 | |
| 20260831100947 | 18 | 0.0 | 0.0 | 0.00 | 0.00 | 0.00 | 100 | 1018.1 | |
| 20260831095520 | 18 | 0.0 | 0.0 | 0.00 | 0.00 | 0.00 | 100 | 1018.3 | |
| 20260831094520 | 18 | 0.0 | 0.0 | 0.00 | 0.00 | 0.00 | 100 | 1018.3 | |
| 20260831093520 | 18 | 0.0 | 0.0 | 0.00 | 0.00 | 0.00 | 100 | 1018.3 | |
| 20260831092520 | 18 | 0.0 | 0.0 | 0.00 | 0.00 | 0.00 | 100 | 1018.2 | |
| 20260831091520 | 18 | 0.0 | 0.0 | 0.00 | 0.00 | 0.00 | 100 | 1018.1 | |
| 20260831090520 | 18 | 0.0 | 0.0 | 0.00 | 0.00 | 0.00 | 100 | 1018.0 | |
| 20260831085944 | 18 | 0.0 | 0.0 | 0.00 | 0.00 | 0.00 | 100 | 1018.0 | |
| 20260831084520 | 18 | 0.0 | 0.0 | 0.00 | 0.00 | 0.00 | 100 | 1018.0 | |
| 20260831083520 | 18 | 0.0 | 0.0 | 0.00 | 0.00 | 0.00 | 100 | 1017.8 | |
| 20260831082520 | 18 | 0.0 | 0.0 | 0.00 | 0.00 | 0.00 | 100 | 1017.8 | |
| 20260831081520 | 18 | 0.0 | 0.0 | 0.00 | 0.00 | 0.00 | 100 | 1017.8 | |
| 20260831080520 | 18 | 0.0 | 0.0 | 0.00 | 0.00 | 0.00 | 100 | 1017.7 | |
| 20260831075520 | 18 | 0.0 | 0.0 | 0.00 | 0.00 | 0.00 | 100 | 1017.7 | |
| 20260831074520 | 18 | 0.0 | 0.0 | 0.00 | 0.00 | 0.00 | 100 | 1017.7 | |
| 20260831073733 | 18 | 0.0 | 0.0 | 0.00 | 0.00 | 0.00 | 100 | 1017.8 | |
| 20260831072520 | 18 | 0.0 | 0.0 | 0.00 | 0.00 | 0.00 | 100 | 1017.8 | |
| 20260831071520 | 18 | 0.0 | 0.0 | 0.00 | 0.00 | 0.00 | 100 | 1017.9 | |
| 20260831070731 | 19 | 0.0 | 0.0 | 0.00 | 0.00 | 0.00 | 100 | 1017.9 | |
| 20260831065520 | 19 | 0.0 | 0.0 | 0.00 | 0.00 | 0.00 | 100 | 1018.1 | |
| 20260831064520 | 19 | 0.0 | 0.0 | 0.00 | 0.00 | 0.00 | 100 | 1018.0 | |
| 20260831063520 | 19 | 0.0 | 0.0 | 0.00 | 0.00 | 0.00 | 100 | 1018.0 | |
| 20260831062520 | 20 | 0.0 | 0.0 | 0.00 | 0.00 | 0.00 | 100 | 1018.0 | |
| 20260831061520 | 20 | 0.0 | 0.0 | 0.00 | 0.00 | 0.00 | 100 | 1018.1 | |
| 20260831060520 | 20 | 0.0 | 1.6 | 0.00 | 0.00 | 0.00 | 100 | 1018.3 | |
| 20260831055520 | 20 | 0.0 | 0.0 | 0.00 | 0.00 | 0.00 | 100 | 1018.3 | |
| 20260831054734 | 20 | 0.0 | 1.6 | 0.00 | 0.00 | 0.00 | 100 | 1018.5 | |
| 20260831053520 | 20 | 0.0 | 0.0 | 0.00 | 0.00 | 0.00 | 100 | 1018.4 | |
| 20260831052520 | 20 | 0.0 | 0.0 | 0.00 | 0.00 | 0.00 | 100 | 1018.5 | |
| 20260831051519 | 20 | 0.0 | 0.0 | 0.00 | 0.00 | 0.00 | 100 | 1018.4 | |
| 20260831050520 | 20 | 293 | 1.6 | 4.8 | 0.00 | 0.00 | 0.00 | 100 | 1018.7 |
| 20260831045733 | 20 | 0.0 | 6.4 | 0.00 | 0.00 | 0.00 | 100 | 1018.6 | |
| 20260831044520 | 20 | 0.0 | 3.2 | 0.00 | 0.00 | 0.00 | 100 | 1018.7 | |
| 20260831043520 | 20 | 293 | 3.2 | 4.8 | 0.00 | 0.00 | 0.00 | 100 | 1018.5 |
| 20260831042520 | 20 | 0.0 | 1.6 | 0.00 | 0.00 | 0.00 | 100 | 1018.3 | |
| 20260831041520 | 20 | 0.0 | 0.0 | 0.00 | 0.00 | 0.00 | 100 | 1018.5 | |
| 20260831040520 | 20 | 0.0 | 0.0 | 0.00 | 0.00 | 0.00 | 100 | 1018.4 | |
| 20260831035519 | 20 | 0.0 | 0.0 | 0.00 | 0.00 | 0.00 | 100 | 1018.5 | |
| 20260831034730 | 20 | 0.0 | 0.0 | 0.00 | 0.00 | 0.00 | 100 | 1018.5 | |
| 20260831033519 | 20 | 0.0 | 0.0 | 0.00 | 0.00 | 0.00 | 100 | 1018.7 | |
| 20260831032519 | 20 | 0.0 | 3.2 | 0.00 | 0.00 | 0.00 | 100 | 1018.8 | |
| 20260831031519 | 20 | 0.0 | 0.0 | 0.00 | 0.00 | 0.00 | 100 | 1018.8 | |
| 20260831030519 | 20 | 0.0 | 0.0 | 0.00 | 0.00 | 0.00 | 100 | 1018.8 | |
| 20260831025520 | 20 | 0.0 | 0.0 | 0.00 | 0.00 | 0.00 | 100 | 1018.9 | |
| 20260831024730 | 20 | 0.0 | 0.0 | 0.00 | 0.00 | 0.00 | 100 | 1018.8 |